Tracking 32941 objects as of 16-Jan-2026
HD Live streaming from Space Station
objects crossing your sky now

CORVUS BC1

Track CORVUS BC1 now!
10-day predictions
CORVUS BC1 is classified as:


NORAD ID: 42847
Int'l Code: 2017-042Y
Perigee: 550.2 km
Apogee: 565.4 km
Inclination: 97.4 °
Period: 95.7 minutes
Semi major axis: 6928 km
RCS: Unknown
Launch date: July 14, 2017
Source: United States (US)
Launch site: TYURATAM MISSILE AND SPACE COMPLEX (TTMTR)

Uplink (MHz):
Downlink (MHz): 400.175
Beacon (MHz):
Mode: FM
Call sign:
Status: Inactive

Your satellite tracking list
Your tracking list is empty




NASA's NSSDC Master Catalog

Two Line Element Set (TLE):
1 42847U 17042Y   26015.43149786  .00002000  00000-0  14387-3 0  9993
2 42847  97.3888 183.7017 0010940 249.6158 110.3894 15.05284423464101
Source of the keplerian elements: AFSPC